Morgantown, WV

9:09 PM EDT on August 19, 2019 (GMT -0400)
Morgantown Municipal-Hart

Weather History for KMGW - July, 2019

Change the Weather History Date:

Monday, July 22, 2019

  Actual Average Record
Temperature  
Mean Temperature 71 °F 73 °F  
Max Temperature 78 °F 83 °F 98 °F (1934)
Min Temperature 64 °F 63 °F 50 °F (1965)
Degree Days  
Heating Degree Days 0 0  
Month to date heating degree days 0 0  
Since 1 June heating degree days 23 31  
Since 1 July heating degree days 0 0  
Cooling Degree Days 6 8  
Month to date cooling degree days 274 176  
Year to date cooling degree days 596 405  
Since 1 June cooling degree days 439 338  
Growing Degree Days 21 (Base 50)    
Moisture  
Dew Point 68 °F    
Average Humidity 87    
Maximum Humidity 100    
Minimum Humidity 74    
Precipitation  
Precipitation 0.86 in 0.15 in 2.18 in (1924)
Month to date precipitation 5.28 3.38  
Year to date precipitation 29.61 24.68  
Sea Level Pressure  
Sea Level Pressure 29.89 in    
Wind  
Wind Speed 6 mph (SW)    
Max Wind Speed 12 mph    
Max Gust Speed 19 mph    
Visibility 7 miles    
Events Fog , Rain , Thunderstorm    
T = Trace of Precipitation, MM = Missing Value Source: NWS Daily Summary

Daily Weather History Graph

Daily Weather History Graph

Search for Another Location

Airport or City:

Astronomy

Jul. 22, 2019 Rise Set
Actual Time 6:09 AM EDT 8:41 PM EDT
Civil Twilight 5:38 AM EDT 9:12 PM EDT
Nautical Twilight 5:00 AM EDT 9:51 PM EDT
Astronomical Twilight 4:17 AM EDT 10:34 PM EDT
Moon No Moon Rise 11:24 AM EDT (7/22)
Length of Visible Light 15h 33m
Length of Day
14h 31m
Waning Gibbous, 72% of the Moon is Illuminated
Jul 22
Waning Gibbous
Jul 24
Last Quarter
Jul 31
New
Aug 7
First Quarter
Aug 15
Full

Hourly Weather History & Observations

Time (EDT) Temp. Dew Point Humidity Pressure Visibility Wind Dir Wind Speed Gust Speed Precip Events Conditions
12:33 AM 75.0 °F 66.9 °F 76% 29.97 in 10.0 mi Variable 3.5 mph - N/A   Mostly Cloudy
12:53 AM 75.0 °F 66.9 °F 76% 29.93 in 10.0 mi South 3.5 mph - N/A   Mostly Cloudy
1:20 AM 75.0 °F 66.9 °F 76% 29.95 in 10.0 mi South 4.6 mph - N/A   Mostly Cloudy
1:53 AM 75.0 °F 66.0 °F 73% 29.91 in 10.0 mi South 5.8 mph - N/A   Overcast
2:05 AM 75.0 °F 66.9 °F 76% 29.95 in 10.0 mi South 4.6 mph - N/A Thunderstorm Mostly Cloudy
2:26 AM 75.0 °F 66.0 °F 73% 29.94 in 10.0 mi SSW 4.6 mph - N/A   Partly Cloudy
2:53 AM 73.9 °F 66.0 °F 76% 29.91 in 10.0 mi SSW 4.6 mph - N/A   Mostly Cloudy
3:53 AM 73.9 °F 66.0 °F 76% 29.89 in 10.0 mi SSW 4.6 mph - N/A   Overcast
4:53 AM 73.9 °F 66.0 °F 76% 29.88 in 10.0 mi SSW 6.9 mph - N/A   Overcast
5:01 AM 73.9 °F 66.0 °F 76% 29.92 in 10.0 mi Variable 4.6 mph - N/A   Overcast
5:53 AM 73.9 °F 66.9 °F 79% 29.87 in 10.0 mi SSW 5.8 mph - N/A   Overcast
6:11 AM 73.9 °F 66.9 °F 79% 29.92 in 10.0 mi SSW 4.6 mph - N/A   Overcast
6:37 AM 72.0 °F 69.1 °F 91% 29.91 in 2.5 mi SSW 6.9 mph - 0.03 in Rain Rain
6:46 AM 72.0 °F 69.1 °F 91% 29.91 in 7.0 mi SSW 3.5 mph - 0.03 in Rain Light Rain
6:53 AM 72.0 °F 69.1 °F 91% 29.88 in 10.0 mi SSW 4.6 mph - 0.03 in   Mostly Cloudy
7:24 AM 72.0 °F 70.0 °F 93% 29.92 in 10.0 mi SSW 5.8 mph - N/A   Mostly Cloudy
7:51 AM 73.4 °F 69.8 °F 88% 29.91 in 10.0 mi SSW 5.8 mph - N/A   Overcast
7:53 AM 73.0 °F 70.0 °F 90% 29.88 in 10.0 mi South 3.5 mph - N/A   Overcast
8:30 AM 73.9 °F 70.0 °F 87% 29.91 in 10.0 mi SSW 5.8 mph - N/A   Overcast
8:50 AM 75.2 °F 71.6 °F 89% 29.91 in 10.0 mi Variable 5.8 mph - N/A   Overcast
8:53 AM 75.0 °F 71.1 °F 87% 29.88 in 10.0 mi SSW 5.8 mph - N/A   Overcast
9:10 AM 75.9 °F 70.0 °F 82% 29.91 in 10.0 mi SW 8.1 mph - N/A   Mostly Cloudy
9:45 AM 73.9 °F 71.1 °F 91% 29.92 in 1.5 mi West 3.5 mph - 0.07 in Rain Rain
9:51 AM 73.4 °F 71.6 °F 94% 29.92 in 0.5 mi Variable 3.5 mph - 0.17 in Fog , Rain Heavy Rain
9:53 AM 73.0 °F 71.1 °F 93% 29.88 in 0.5 mi SSW 8.1 mph - 0.18 in Fog , Rain Heavy Rain
10:01 AM 73.0 °F 71.1 °F 93% 29.91 in 2.0 mi SSW 5.8 mph - 0.02 in Rain Light Rain
10:08 AM 73.0 °F 71.1 °F 93% 29.91 in 8.0 mi South 5.8 mph - 0.02 in Rain Light Rain
10:22 AM 73.0 °F 71.1 °F 93% 29.91 in 10.0 mi SSW 6.9 mph - 0.02 in Rain Light Rain
10:53 AM 73.0 °F 71.1 °F 93% 29.89 in 10.0 mi SSW 5.8 mph - 0.02 in   Overcast
11:53 AM 73.9 °F 72.0 °F 93% 29.88 in 6.0 mi SSW 5.8 mph - 0.00 in Rain Light Rain
12:00 PM 73.9 °F 72.0 °F 93% 29.91 in 8.0 mi Variable 5.8 mph - 0.00 in   Overcast
12:27 PM 75.0 °F 72.0 °F 90% 29.90 in 10.0 mi SSW 9.2 mph - 0.00 in   Overcast
12:53 PM 75.0 °F 71.1 °F 87% 29.87 in 10.0 mi SSW 10.4 mph - 0.00 in Rain Light Rain
1:53 PM 75.9 °F 71.1 °F 85% 29.84 in 10.0 mi Variable 4.6 mph - 0.00 in   Overcast
2:23 PM 75.9 °F 71.1 °F 85% 29.87 in 10.0 mi SW 5.8 mph - N/A   Overcast
2:41 PM 73.9 °F 71.1 °F 91% 29.87 in 1.2 mi SW 8.1 mph - 0.07 in Rain Light Rain
2:53 PM 73.9 °F 71.1 °F 91% 29.84 in 6.0 mi WSW 6.9 mph - 0.19 in Rain Light Rain
3:06 PM 75.9 °F 73.9 °F 94% 29.86 in 6.0 mi Variable 3.5 mph - 0.00 in Rain Light Rain
3:51 PM 78.8 °F 73.4 °F 83% 29.85 in 10.0 mi West 4.6 mph - 0.00 in   Overcast
3:53 PM 78.1 °F 73.0 °F 84% 29.82 in 10.0 mi SW 5.8 mph - 0.00 in   Overcast
4:19 PM 72.0 °F 69.1 °F 91% 29.87 in 1.5 mi NW 8.1 mph - 0.07 in Rain Light Rain
4:24 PM 70.0 °F 68.0 °F 93% 29.86 in 0.5 mi Variable 6.9 mph - 0.15 in Fog , Rain Heavy Rain
4:31 PM 70.0 °F 69.1 °F 97% 29.87 in 1.8 mi NNW 5.8 mph - 0.16 in Rain Rain
4:33 PM 70.0 °F 69.1 °F 97% 29.87 in 2.5 mi NNW 4.6 mph - 0.17 in Rain Rain
4:35 PM 70.0 °F 68.0 °F 93% 29.87 in 2.5 mi North 8.1 mph - 0.18 in Rain , Thunderstorm Thunderstorms and Rain
4:43 PM 69.1 °F 68.0 °F 96% 29.87 in 4.0 mi Variable 5.8 mph - 0.19 in Rain , Thunderstorm Light Thunderstorms and Rain
4:53 PM 69.1 °F 66.9 °F 93% 29.85 in 2.5 mi Variable 4.6 mph - 0.23 in Rain , Thunderstorm Thunderstorms and Rain
5:00 PM 68.0 °F 66.9 °F 96% 29.88 in 2.5 mi NNW 6.9 mph - 0.02 in Rain , Thunderstorm Thunderstorms and Rain
5:02 PM 68.0 °F 66.9 °F 96% 29.88 in 3.0 mi Variable 4.6 mph - 0.02 in Rain Rain
5:10 PM 68.0 °F 66.0 °F 93% 29.88 in 4.0 mi North 9.2 mph - 0.03 in Rain , Thunderstorm Light Thunderstorms and Rain
5:42 PM 66.0 °F 64.9 °F 96% 29.88 in 7.0 mi North 5.8 mph - 0.08 in Rain Light Rain
5:53 PM 66.0 °F 64.0 °F 93% 29.87 in 5.0 mi North 6.9 mph - 0.10 in Rain Rain
6:02 PM 66.0 °F 64.0 °F 93% 29.90 in 4.0 mi North 5.8 mph - 0.02 in Rain Rain
6:45 PM 66.0 °F 64.0 °F 93% 29.89 in 10.0 mi North 9.2 mph - 0.05 in   Overcast
6:53 PM 66.0 °F 64.0 °F 93% 29.87 in 10.0 mi North 12.7 mph - 0.05 in   Overcast
7:21 PM 66.0 °F 64.0 °F 93% 29.91 in 10.0 mi NNW 4.6 mph - 0.00 in Rain Light Rain
7:35 PM 66.0 °F 63.0 °F 90% 29.92 in 10.0 mi Variable 5.8 mph - 0.01 in Rain Light Rain
7:53 PM 64.9 °F 62.1 °F 90% 29.89 in 10.0 mi North 8.1 mph - 0.01 in Rain Light Rain
8:53 PM 64.9 °F 63.0 °F 93% 29.91 in 10.0 mi North 3.5 mph - 0.03 in Rain Light Rain
9:53 PM 64.9 °F 63.0 °F 93% 29.91 in 10.0 mi Calm Calm - 0.02 in   Overcast
10:53 PM 64.9 °F 64.0 °F 97% 29.92 in 9.0 mi West 3.5 mph - N/A   Overcast
11:46 PM 64.9 °F 63.0 °F 93% 29.95 in 10.0 mi SW 4.6 mph - N/A   Mostly Cloudy
11:53 PM 64.9 °F 64.0 °F 97% 29.92 in 10.0 mi Calm Calm - N/A   Scattered Clouds